Theta_e
312 311 311 311 309 308 303 298 296 305 309 304 301 300 302 302 305 306 305 305 305 305 305 303 305 305 307 308 308 305 310 308 303 305 308 308 308 309 309 304 302 302 302 302
311 311 311 311 309 308 301 298 296 309 308 300 301 302 302 304 305 304 304 305 306 306 305 305 306 306 310 309 308 308 308 306 301 303 306 308 307 306 307 307 307 303 300 303
311 311 311 311 310 308 302 300 301 308 307 305 301 301 302 302 306 304 305 306 307 306 305 306 305 308 308 311 311 318 313 306 306 300 305 308 304 305 306 309 304 304 304 307
310 311 311 311 310 308 302 303 302 300 301 302 302 301 302 302 304 305 305 304 306 307 305 305 306 307 308 310 314 309 312 308 305 304 304 305 306 305 305 306 307 304 306 306
310 310 311 311 310 305 301 299 299 301 300 299 299 298 301 301 302 303 303 304 305 306 307 309 306 309 309 310 309 309 307 306 306 303 304 304 303 305 306 305 304 304 304 305
309 310 310 311 309 305 298 298 299 299 298 299 299 300 300 301 302 306 306 307 307 305 307 310 310 310 311 312 311 309 309 306 305 302 303 303 300 305 306 306 307 307 303 310
309 310 310 310 309 304 302 299 298 298 297 299 300 299 300 300 302 303 305 308 307 307 310 310 311 310 309 310 308 309 308 308 306 301 303 295 306 308 309 308 308 310 310 311
309 310 310 310 310 307 305 301 297 298 295 298 298 299 300 302 302 302 304 306 307 308 309 308 306 306 306 305 305 307 309 308 302 301 300 302 304 307 306 306 307 312 312 315
309 310 310 310 310 308 305 302 301 298 297 293 299 299 299 300 301 303 305 308 309 308 308 306 302 299 304 302 302 305 307 310 307 301 298 295 306 308 312 311 303 313 315 317
309 309 309 309 310 308 306 302 301 299 297 301 300 298 300 302 301 301 302 303 306 307 306 303 301 300 303 300 301 302 303 304 302 302 300 302 307 311 312 301 304 316 316 316
308 308 309 309 309 310 305 301 303 299 297 299 301 302 300 300 302 300 301 303 305 307 303 303 301 302 302 301 303 302 303 302 300 300 298 296 311 311 306 310 315 316 318 319
309 309 309 309 309 309 303 298 302 303 297 299 302 304 305 305 304 301 301 301 301 303 304 303 303 302 302 301 299 304 300 304 303 304 304 312 311 310 312 314 313 315 317 318
308 308 309 309 309 309 307 302 302 300 297 299 299 299 303 304 305 307 298 302 303 302 304 306 305 302 305 300 302 303 304 305 306 305 308 309 311 312 312 314 315 315 316 317
308 308 308 308 308 309 307 303 301 300 297 293 296 304 302 305 304 305 306 303 303 303 303 303 305 304 305 304 304 304 306 306 306 304 307 309 310 312 311 311 313 312 314 314
307 307 308 308 309 308 307 304 303 302 297 293 295 301 303 303 303 302 305 303 302 302 301 300 299 303 303 302 303 303 306 307 303 304 311 310 310 312 311 309 309 310 311 312
307 307 308 308 308 303 302 297 303 303 302 295 292 302 301 303 302 301 301 302 303 302 301 300 301 300 302 298 297 304 306 304 307 306 309 310 309 309 309 309 310 310 310 312
307 307 307 307 306 305 298 296 302 303 302 297 294 295 301 302 301 302 301 301 302 303 301 300 301 301 301 298 292 299 302 304 306 307 306 304 306 305 309 310 311 311 312 314
307 307 307 307 305 302 299 302 304 304 298 299 293 294 298 302 298 298 301 299 300 298 299 299 300 299 300 295 300 302 303 304 304 306 307 305 307 308 308 310 309 309 310 313
307 306 304 303 300 296 302 308 307 303 301 295 295 293 293 301 297 300 301 301 297 299 297 297 298 296 295 300 302 303 304 303 304 306 306 307 308 308 309 309 308 308 310 313
304 303 298 293 299 305 307 303 298 298 299 299 294 296 293 296 295 297 301 301 298 295 298 301 296 295 301 302 302 303 306 311 311 307 307 310 310 311 311 310 310 310 312 314
301 297 296 303 307 302 300 294 293 294 292 296 296 295 295 298 295 295 300 298 298 293 295 297 295 294 300 306 310 312 314 314 313 311 311 312 312 311 309 310 311 312 315 316
302 302 303 303 300 297 293 291 294 293 292 296 297 299 298 300 300 298 300 296 298 290 299 297 292 299 304 306 309 312 313 313 313 315 314 315 314 313 313 314 315 316 318 319
304 299 297 296 295 287 287 286 291 292 297 301 300 300 302 301 302 300 300 293 293 300 295 293 297 303 306 309 312 313 314 314 315 313 315 314 315 317 316 316 317 318 319 320
297 293 286 289 287 290 291 293 296 298 302 302 301 301 300 302 301 300 294 297 299 293 290 292 301 305 309 312 314 313 311 314 313 313 314 316 314 315 314 315 315 317 319 320
294 294 287 289 292 293 296 299 300 302 306 304 302 302 303 301 298 300 297 294 291 294 294 301 307 311 312 312 313 312 314 314 314 313 315 315 315 314 315 316 317 317 317 316
296 293 290 292 292 295 297 298 299 306 306 305 304 299 296 296 298 295 294 292 291 298 304 309 311 310 310 311 314 315 314 316 315 315 313 313 312 312 312 313 311 312 314 313
291 292 296 294 294 294 296 298 300 304 304 296 297 293 293 300 295 294 299 296 301 304 306 308 309 308 311 314 314 315 314 314 313 313 315 312 313 312 310 308 308 308 306 305
Wind_Speed
18 20 21 22 24 27 7 5 3 3 3 4 1 6 6 4 4 4 3 3 5 6 10 8 10 12 2 6 14 12 9 6 7 4 2 2 0 4 7 7 6 0 3 6
18 19 19 20 20 19 6 5 4 1 3 4 4 2 4 3 4 4 3 3 6 3 7 4 6 7 3 8 11 12 11 5 6 4 4 3 6 5 4 6 3 8 6 6
17 19 18 19 20 20 1 4 2 1 2 2 2 4 4 5 2 4 3 3 2 3 4 0 8 9 2 5 4 5 8 5 9 15 15 5 7 8 8 8 7 7 8 8
16 18 18 18 20 19 2 2 2 2 1 2 2 2 1 5 5 2 2 3 7 5 4 3 3 2 6 4 6 4 5 6 4 1 2 6 9 15 14 11 6 8 3 7
15 16 16 16 18 15 1 4 4 2 2 4 3 1 3 3 1 2 3 4 4 7 5 5 9 7 4 4 4 4 2 4 3 4 1 3 8 11 12 7 5 3 5 8
13 15 15 13 12 10 3 2 1 3 1 1 2 1 1 3 2 4 2 4 2 6 3 3 4 4 7 4 5 5 4 7 5 5 1 3 4 12 13 7 7 7 9 8
12 13 13 11 9 5 1 1 2 3 1 3 1 1 3 3 3 3 3 3 1 3 7 4 7 10 11 9 8 2 7 6 1 4 5 8 3 1 6 10 6 11 4 6
12 13 12 9 9 3 2 0 2 2 3 3 3 1 2 7 4 4 3 3 5 6 1 3 4 2 2 5 7 4 1 5 5 5 7 3 2 4 4 8 8 11 9 6
12 12 10 9 8 5 1 1 1 2 4 1 3 3 2 2 3 2 1 1 6 1 1 2 5 6 5 6 4 3 6 4 4 4 6 10 1 2 5 4 6 12 6 9
10 10 9 8 8 4 1 1 2 2 3 1 2 2 2 0 0 3 3 6 3 2 2 2 3 4 0 8 10 6 4 3 7 5 7 3 0 4 1 8 3 10 7 10
8 10 9 6 6 5 1 2 2 3 3 6 3 3 2 1 1 2 6 4 2 1 2 3 3 3 3 3 3 3 7 7 4 3 4 9 2 4 5 3 1 6 7 8
9 11 11 7 4 3 2 1 0 1 4 5 3 7 10 7 0 3 2 4 2 3 2 1 2 3 3 2 5 1 4 2 2 5 2 5 5 9 4 2 2 3 7 10
7 7 9 5 3 2 3 1 1 2 3 5 4 4 2 3 9 9 3 1 2 1 3 1 2 2 2 5 3 4 2 3 2 4 7 8 7 4 2 2 1 3 5 7
8 6 6 4 4 3 5 2 1 1 2 4 1 3 2 2 2 11 10 2 1 2 1 1 1 1 2 1 2 3 2 7 6 2 3 3 4 5 1 3 2 6 8 8
9 3 4 2 4 3 2 2 3 3 3 3 5 8 1 3 4 7 9 6 2 3 1 1 2 1 2 1 1 3 5 5 6 3 5 2 4 5 2 7 10 9 10 13
7 6 3 4 3 3 2 2 3 4 2 3 3 3 3 4 2 7 7 5 2 1 1 1 0 1 3 3 3 6 6 3 4 3 4 5 2 5 10 10 11 12 10 11
10 5 3 4 5 1 3 3 2 5 2 2 4 3 2 3 1 3 3 2 2 1 2 2 1 2 2 1 4 4 6 6 4 4 2 5 7 6 9 10 11 9 11 11
7 3 4 3 2 2 4 1 8 5 2 2 3 2 1 4 1 3 1 4 2 1 2 2 2 2 1 5 12 8 7 6 8 10 9 12 11 12 14 13 11 12 12 11
6 8 6 2 1 2 2 4 9 2 2 2 1 2 3 4 2 1 2 1 3 1 3 3 4 4 6 8 7 7 4 4 9 12 12 13 12 15 15 15 15 13 12 12
5 1 1 0 1 2 5 2 3 3 0 1 2 0 1 3 2 3 2 1 2 3 2 2 4 5 9 7 5 5 5 6 7 9 12 10 10 10 13 13 11 11 11 11
1 1 1 2 5 2 1 1 1 1 2 2 1 3 3 1 2 2 2 2 1 3 3 3 2 4 1 3 3 4 7 7 8 9 12 12 12 13 12 11 10 8 9 9
1 1 1 2 1 1 1 0 1 2 2 2 2 1 2 1 1 1 1 2 1 1 1 3 3 1 1 3 6 6 6 8 11 9 11 10 8 5 5 7 6 5 6 7
1 1 1 1 1 1 2 3 2 1 1 1 1 1 1 2 1 1 1 1 0 1 2 3 3 1 4 5 7 7 6 8 6 4 5 5 4 5 7 9 8 7 7 5
1 0 1 2 1 1 0 2 2 1 1 2 2 1 1 0 2 1 2 2 2 3 4 4 2 2 6 7 6 5 8 5 1 6 6 5 4 5 7 5 5 4 4 1
1 1 1 1 2 3 2 1 2 2 1 2 0 1 2 1 1 1 1 3 4 4 3 2 1 5 7 7 5 5 5 2 4 3 6 7 7 6 4 5 7 7 5 1
1 1 0 0 3 0 1 2 2 1 0 0 1 1 1 2 2 3 5 3 5 1 1 2 5 7 5 5 5 4 3 5 6 8 6 5 4 4 6 9 9 8 9 9
2 1 1 3 4 4 2 2 2 2 1 1 1 3 2 1 3 4 4 3 4 5 7 6 8 7 5 4 2 5 6 7 6 4 5 6 6 9 10 13 10 10 11 11
Wind_Direction
333 334 335 336 338 341 7 327 281 62 207 167 253 207 198 210 217 192 234 249 244 207 176 167 185 192 213 164 150 180 180 205 216 181 60 273 91 172 171 215 195 232 310 272
329 332 335 336 340 355 316 328 289 337 234 206 197 241 234 238 209 214 189 244 226 191 186 164 172 190 101 161 168 167 172 207 198 178 168 159 217 163 129 109 128 191 224 249
327 329 335 337 339 347 242 288 296 285 85 25 262 194 214 208 193 241 236 262 221 174 175 285 165 151 127 145 143 86 139 149 213 228 227 173 178 182 179 208 206 194 227 273
325 328 333 341 340 347 266 306 44 35 336 124 329 262 330 194 204 204 253 214 223 186 169 141 155 139 135 104 144 93 190 191 182 63 209 194 197 180 174 198 182 223 222 219
323 326 331 343 345 345 314 334 334 354 285 289 258 241 188 212 213 247 169 252 198 196 179 206 184 160 203 161 135 119 111 149 151 139 148 170 171 175 177 188 176 197 177 248
318 322 331 341 358 349 2 9 268 281 10 324 234 150 191 169 300 194 339 296 206 169 94 5 34 65 86 100 155 129 134 145 173 174 38 134 223 201 192 187 189 194 201 232
312 316 323 338 4 52 279 325 288 286 261 277 125 331 333 260 311 290 317 347 230 48 310 159 104 82 84 92 68 70 136 119 112 125 165 222 78 310 227 215 200 208 225 216
307 309 316 333 343 50 325 160 285 307 286 304 254 266 304 299 295 231 270 35 4 310 200 122 116 83 131 65 40 34 349 147 123 193 212 339 177 157 179 197 222 215 226 230
300 304 315 324 331 5 326 228 249 280 296 197 327 307 357 342 330 231 279 14 334 258 89 148 169 171 159 180 131 58 83 67 226 159 225 235 179 90 355 166 230 36 330 287
285 294 298 309 321 5 354 276 215 263 276 268 258 288 347 152 214 297 319 345 352 313 134 140 167 164 182 166 175 166 138 92 212 183 228 241 17 328 210 215 277 336 339 309
275 283 283 280 302 336 14 316 214 318 295 283 246 287 263 163 45 356 6 240 152 107 143 200 146 180 149 159 128 180 175 172 171 141 214 242 102 147 225 33 347 310 343 328
269 274 270 249 262 322 136 277 287 311 248 295 311 276 272 266 82 346 339 342 329 20 86 149 136 152 181 153 180 123 193 252 182 227 121 116 85 106 110 183 237 357 334 341
285 286 286 251 215 243 190 265 299 235 276 269 260 255 56 211 234 223 245 169 330 94 347 92 82 161 217 176 178 144 149 174 175 183 174 181 168 157 180 214 308 13 5 355
294 300 288 251 216 196 181 249 150 254 293 288 309 352 281 353 199 204 205 64 96 68 313 36 78 113 269 137 56 249 59 163 168 226 194 181 234 212 135 19 350 342 346 345
316 267 261 207 198 189 186 239 227 240 281 311 301 306 325 306 185 192 199 207 335 349 8 20 64 81 194 57 250 222 193 189 201 211 153 225 161 165 242 301 307 309 315 312
311 260 288 180 180 119 243 226 152 187 218 275 300 358 289 357 110 147 154 155 150 310 292 37 67 9 289 232 246 263 223 253 258 274 206 207 185 292 288 279 282 280 284 298
283 256 174 189 157 169 250 348 52 156 223 277 293 328 51 331 104 110 115 141 124 229 137 209 273 133 240 228 245 265 273 257 259 219 193 240 241 276 301 289 287 275 289 283
263 194 159 138 111 261 255 170 197 167 277 268 303 287 257 9 89 124 96 137 171 111 126 136 193 132 236 247 245 269 287 310 290 270 250 268 287 289 279 278 273 270 275 275
113 112 110 128 213 223 34 65 126 165 292 315 289 310 91 355 60 85 130 206 163 85 201 186 196 167 219 228 240 236 243 251 287 293 286 284 277 273 273 267 267 264 266 273
115 124 214 176 188 259 173 204 184 190 186 241 270 315 285 315 359 102 157 83 125 191 122 168 224 247 257 271 263 258 269 277 293 284 273 269 285 293 293 282 275 270 268 272
0 79 316 324 310 205 199 148 244 144 216 190 238 258 319 87 355 74 355 120 122 212 117 262 212 257 205 125 359 281 274 285 285 261 267 275 276 290 295 288 279 276 275 271
30 346 290 283 228 153 214 69 181 233 40 177 268 64 237 54 297 287 72 105 183 181 117 240 248 256 229 299 313 298 297 292 289 285 275 284 297 303 311 298 300 319 311 308
164 232 236 4 84 92 214 151 144 178 168 50 16 120 321 163 228 80 241 197 167 137 220 241 248 290 266 288 305 299 311 298 302 337 330 288 314 6 1 344 338 317 317 328
351 55 96 324 147 264 40 356 41 62 312 40 347 36 26 53 202 105 234 82 199 223 229 234 213 247 312 308 301 299 318 330 18 358 2 34 29 33 33 345 323 327 340 322
352 274 86 193 334 277 302 305 277 200 352 341 75 148 302 47 240 213 119 203 233 229 231 204 163 311 307 314 322 331 341 76 57 52 40 20 20 21 19 5 13 15 30 48
333 233 278 86 283 143 23 351 295 181 130 232 287 0 280 240 259 209 215 237 228 210 242 334 327 327 304 311 340 15 70 91 68 48 45 49 40 40 42 43 36 38 51 61
322 303 320 292 290 285 304 309 340 315 319 20 339 233 220 3 244 226 210 243 341 334 301 293 293 283 294 288 106 99 93 80 71 82 84 72 64 61 54 53 47 62 65 73